Flag for Brazil Weather past 2 weeks in Salvador, Bahia, Brazil

Now
86 °F

Scattered clouds.


Feels Like: 93 °F
Forecast: 80 / 83 °F
Wind: 12 mph from Southeast

Location: Salvador Aeroporto


UV Index: 7 (High)

Visibility: N/A


Pressure: 29.89 "Hg

Humidity: 66%

Dew point: 73 °F

Location of SalvadorLocation

Historic Weather in Salvador

°F

Salvador temperature yesterday

Maximum temperature yesterday: 86 °F (at 8:00 AM)
Minimum temperature yesterday: 81 °F (at 1:00 AM)
Average temperature yesterday: 83 °F

Past Weeks' High & Low Weather Summary

 TemperatureHumidityPressure
High88 °F (Apr 6, 9:00 AM)100% (Apr 8, 11:00 AM)30.01 "Hg (Apr 8, 11:00 AM)
Low43 °F (Apr 8, 11:00 AM)59% (Apr 16, 11:00 AM)29.83 "Hg (Apr 8, 3:00 PM)
Average82 °F78%29.92 "Hg
* Reported Apr 5 3:00 PM — Apr 20 3:00 PM, Salvador, Weather by CustomWeather, © 2014

Note: Actual official high and low records may vary slightly from our data, if they occured in-between our weather recording intervals... More about our weather records

Advertising

Historic Weather Conditions — Data for Previous 24 hours

 ConditionsComfort  
Time TempWeatherWind HumidityBarometerVisibility
3:00 PM
Apr 20
86 °FScattered clouds.12 mph66%29.89 "HgN/A
2:00 PM86 °FScattered clouds.9 mph66%29.92 "HgN/A
1:00 PM86 °FScattered clouds.9 mph70%29.92 "HgN/A
12:00 PM86 °FScattered clouds.8 mph70%29.95 "HgN/A
11:00 AM88 °FScattered clouds.9 mph62%29.98 "HgN/A
10:00 AM86 °FScattered clouds.9 mph66%30.01 "HgN/A
9:00 AM86 °FScattered clouds.12 mph66%30.01 "HgN/A
8:00 AM84 °FScattered clouds.8 mph70%30.01 "HgN/A
7:00 AM82 °FScattered clouds.7 mph70%29.98 "HgN/A
6:00 AM81 °FScattered clouds.9 mph74%29.95 "HgN/A
5:00 AM81 °FPassing clouds.7 mph74%29.92 "HgN/A
4:00 AM81 °FPassing clouds.7 mph79%29.92 "HgN/A
3:00 AM81 °FPassing clouds.7 mph79%29.92 "HgN/A
2:00 AM81 °FPassing clouds.6 mph74%29.92 "HgN/A
1:00 AM81 °FPassing clouds.8 mph79%29.95 "HgN/A
12:00 AM81 °FPassing clouds.8 mph79%29.95 "HgN/A
11:00 PM
Apr 19
82 °FPassing clouds.8 mph74%29.95 "HgN/A
10:00 PM82 °FPassing clouds.10 mph74%29.95 "HgN/A
9:00 PM82 °FPassing clouds.8 mph74%29.95 "HgN/A
8:00 PM82 °FPassing clouds.10 mph74%29.95 "HgN/A
7:00 PM82 °FPassing clouds.8 mph74%29.92 "HgN/A
6:00 PM82 °FPassing clouds.8 mph74%29.92 "HgN/A
5:00 PM84 °FScattered clouds.7 mph70%29.92 "HgN/A
4:00 PM84 °FScattered clouds.9 mph70%29.92 "HgN/A
3:00 PM86 °FScattered clouds.10 mph66%29.89 "HgN/A
Weather by CustomWeather, © 2014

See weather overview